Location: Dodgeville, WI 53533, USA
(43.0344°N, 90.0900°W)
Time: 16:13:07
(UTC-06:00)

Hubble Space Telescope - Pass Details

Date: 24 January 2021
Orbit: 536 x 539 km, 28.5° (Epoch: 28 February)

Event Time Altitude Azimuth Distance (km) Brightness Sun altitude
Rises 17:38:48 0° 234° (SW) 2,671 6.1 -6.9°
Reaches altitude 10° 17:43:04 10° 192° (SSW) 1,781 3.9 -7.6°
Maximum altitude 17:43:43 10° 183° (S) 1,761 3.7 -7.7°
Drops below altitude 10° 17:44:23 10° 174° (S) 1,781 3.6 -7.9°
Sets 17:48:39 0° 132° (SE) 2,672 4.0 -8.6°
